Location: Dob?e?
(49.9411°N, 15.1496°E)
Time: 17:04:53
(UTC+00:00)

X-37B - Pass Details

Date: 06 August 2021
Orbit: 381 x 393 km, 45.0° (Epoch: 29 August)

Event Time Altitude Azimuth Distance (km) Brightness Sun altitude
Exits shadow 01:56:52 23° 188° (S) 870 1.9 -13.4°
Maximum altitude 01:57:34 25° 165° (SSE) 816 1.9 -13.4°
Drops below altitude 10° 02:00:13 10° 108° (ESE) 1,398 3.7 -13.1°
Sets 02:02:29 0° 95° (E) 2,253 5.1 -12.8°
